Chevak, AK

10:20 AM AKST on February 25, 2017 (GMT -0900)
Chevak

Weather History for PAVA - October, 2012

Change the Weather History Date:

Monday, October 1, 2012

  Actual Average (PAHP) Record (PAHP)
Temperature  
Mean Temperature 40 °F -  
Max Temperature 45 °F 40 °F 50 °F (2016)
Min Temperature 37 °F 33 °F 26 °F (2001)
Degree Days  
Heating Degree Days 24    
Moisture  
Dew Point 41 °F    
Average Humidity 97    
Maximum Humidity 100    
Minimum Humidity 93    
Precipitation  
Precipitation 0.11 in - - ()
Sea Level Pressure  
Sea Level Pressure 29.71 in    
Wind  
Wind Speed 19 mph (SSE)    
Max Wind Speed 29 mph    
Max Gust Speed 38 mph    
Visibility 8 miles    
Events Rain    
Averages and records for this station are not official NWS values.
T = Trace of Precipitation, MM = Missing Value Source: NWS Daily Summary

Daily Weather History Graph

Daily Weather History Graph

Search for Another Location

Airport or City:

Trip Planner

Search our weather history database for the weather conditions in past years. The results will help you decide how hot, cold, wet, or windy it might be!

Date:

Astronomy

Oct. 01, 2012 Rise Set
Actual Time 9:11 AM AKDT 8:31 PM AKDT
Civil Twilight 8:27 AM AKDT 9:14 PM AKDT
Nautical Twilight 7:36 AM AKDT 10:05 PM AKDT
Astronomical Twilight 6:42 AM AKDT 10:59 PM AKDT
Moon 8:24 PM AKDT (10/1) 11:39 AM AKDT (10/1)
Length of Visible Light 12h 47m
Length of Day
11h 20m
Full, 97% of the Moon is Illuminated
Oct 1
Full
Oct 7
Last Quarter
Oct 15
New
Oct 21
First Quarter
Oct 29
Full

Hourly Weather History & Observations

Time (AKDT) Temp. Windchill Dew Point Humidity Pressure Visibility Wind Dir Wind Speed Gust Speed Precip Events Conditions
12:57 AM 37.9 °F 26.8 °F 37.0 °F 97% 29.75 in 10.0 mi ESE 24.2 mph 29.9 mph 0.01 in Rain Light Rain
1:57 AM 37.9 °F 27.6 °F 37.0 °F 97% 29.74 in 10.0 mi ESE 20.7 mph 26.5 mph 0.01 in   Overcast
2:57 AM 39.0 °F 28.8 °F 37.9 °F 96% 29.72 in 8.0 mi ESE 21.9 mph 31.1 mph 0.01 in Rain Light Rain
3:57 AM 39.9 °F 30.5 °F 39.0 °F 97% 29.71 in 9.0 mi SE 19.6 mph 26.5 mph 0.00 in   Overcast
4:27 AM 39.2 °F 29.6 °F 39.2 °F 100% 29.69 in 5.0 mi SE 19.6 mph 25.3 mph 0.00 in Rain Light Rain
4:57 AM 39.9 °F 30.5 °F 39.9 °F 100% 29.70 in 4.0 mi SE 19.6 mph - 0.00 in   Overcast
5:57 AM 41.0 °F 33.5 °F 41.0 °F 100% 29.70 in 10.0 mi SSE 13.8 mph - N/A   Overcast
6:29 AM 41.0 °F 35.2 °F 41.0 °F 100% 29.69 in 2.0 mi SSE 9.2 mph - N/A   Overcast
6:32 AM 41.0 °F 34.7 °F 41.0 °F 100% 29.69 in 1.5 mi SE 10.4 mph - N/A   Overcast
6:45 AM 41.0 °F 34.7 °F 41.0 °F 100% 29.69 in 2.0 mi SE 10.4 mph - N/A   Overcast
6:57 AM 41.0 °F 34.7 °F 41.0 °F 100% 29.70 in 2.5 mi SSE 10.4 mph - N/A   Overcast
7:07 AM 41.0 °F 35.2 °F 41.0 °F 100% 29.69 in 1.5 mi SSE 9.2 mph - N/A   Overcast
7:20 AM 41.0 °F 34.7 °F 41.0 °F 100% 29.69 in 2.5 mi SSE 10.4 mph - N/A   Overcast
7:25 AM 42.8 °F 36.6 °F 41.0 °F 93% 29.69 in 3.0 mi SSE 11.5 mph - N/A   Overcast
7:57 AM 42.1 °F 36.1 °F 41.0 °F 96% 29.70 in 6.0 mi SSE 10.4 mph - N/A   Overcast
8:27 AM 41.0 °F 35.2 °F 41.0 °F 100% 29.70 in 10.0 mi SSE 9.2 mph - N/A   Overcast
8:38 AM 41.0 °F 34.7 °F 41.0 °F 100% 29.70 in 10.0 mi SSE 10.4 mph - N/A   Overcast
8:57 AM 41.0 °F 35.2 °F 41.0 °F 100% 29.70 in 10.0 mi SSE 9.2 mph - N/A   Overcast
9:23 AM 41.0 °F 33.9 °F 41.0 °F 100% 29.69 in 10.0 mi SE 12.7 mph - 0.00 in Rain Light Rain
9:26 AM 41.0 °F 33.9 °F 41.0 °F 100% 29.69 in 10.0 mi SE 12.7 mph - 0.00 in Rain Light Rain
9:57 AM 42.1 °F 33.9 °F 41.0 °F 96% 29.70 in 10.0 mi SE 17.3 mph - 0.00 in Rain Light Rain
10:14 AM 42.8 °F 35.1 °F 41.0 °F 93% 29.69 in 10.0 mi SSE 16.1 mph - 0.01 in Rain Light Rain
10:57 AM 43.0 °F 35.7 °F 42.1 °F 97% 29.71 in 10.0 mi SSE 15.0 mph - 0.03 in Rain Light Rain
11:57 AM 43.0 °F 34.5 °F 42.1 °F 97% 29.71 in 10.0 mi SSE 19.6 mph - 0.01 in Rain Light Rain
12:37 PM 42.8 °F 34.3 °F 42.8 °F 100% 29.70 in 10.0 mi South 19.6 mph 27.6 mph 0.01 in Rain Light Rain
12:57 PM 44.1 °F 35.4 °F 43.0 °F 96% 29.71 in 10.0 mi South 21.9 mph 29.9 mph 0.01 in Rain Light Rain
1:57 PM 44.1 °F 35.4 °F 43.0 °F 96% 29.71 in 10.0 mi South 21.9 mph 28.8 mph 0.01 in Rain Light Rain
2:57 PM 44.1 °F 35.2 °F 43.0 °F 96% 29.72 in 10.0 mi South 23.0 mph 31.1 mph 0.00 in Rain Light Rain
3:57 PM 44.1 °F 35.4 °F 43.0 °F 96% 29.72 in 10.0 mi South 21.9 mph 31.1 mph 0.00 in Rain Light Rain
4:57 PM 44.1 °F 34.6 °F 43.0 °F 96% 29.73 in 10.0 mi South 26.5 mph 34.5 mph 0.01 in Rain Light Rain
5:57 PM 44.1 °F 35.0 °F 43.0 °F 96% 29.73 in 10.0 mi South 24.2 mph 31.1 mph 0.01 in Rain Light Rain
6:57 PM 44.1 °F 34.4 °F 42.1 °F 93% 29.73 in 10.0 mi South 27.6 mph 38.0 mph 0.00 in Rain Light Rain
7:52 PM 44.6 °F 34.9 °F 42.8 °F 93% 29.72 in 10.0 mi South 28.8 mph 38.0 mph 0.00 in Rain Light Rain
7:57 PM 44.1 °F 34.2 °F 42.1 °F 93% 29.73 in 10.0 mi South 28.8 mph 38.0 mph 0.00 in Rain Light Rain
8:19 PM 44.6 °F 35.5 °F 42.8 °F 93% 29.72 in 9.0 mi South 25.3 mph 38.0 mph 0.00 in Rain Light Rain
9:57 PM 43.0 °F 32.9 °F 41.0 °F 93% 29.74 in 10.0 mi South 27.6 mph 35.7 mph 0.00 in Rain Light Rain
10:57 PM 43.0 °F 33.5 °F 41.0 °F 93% 29.74 in 10.0 mi South 24.2 mph 28.8 mph 0.00 in Rain Light Rain
11:45 PM 42.8 °F 33.5 °F 42.8 °F 100% 29.73 in 10.0 mi South 23.0 mph 32.2 mph 0.00 in Rain Light Rain
11:57 PM 42.8 °F 32.9 °F 42.8 °F 100% 29.73 in 10.0 mi South 26.5 mph 33.4 mph 0.00 in Rain Light Rain
11:59 PM 43.0 °F 33.5 °F 42.1 °F 97% 29.75 in 10.0 mi South 24.2 mph 33.4 mph 0.00 in Rain Light Rain